Regional Weather Roundup
Issued by NWS Mt. Holly, NJ

Home | Current Version | Previous Version | Text Only | Print | Product List | Glossary On
Versions: 1 2 3 4 5 6 7 8 9 10 11 12 13 14 15 16 17 18 19 20 21 22 23 24 25 26 27
000
ASUS41 KPHI 231712
RWRPHI

REGIONAL WEATHER ROUNDUP
NATIONAL WEATHER SERVICE MOUNT HOLLY NJ
1200 PM EST THU NOV 23 2017

NOTE:  "FAIR" INDICATES FEW OR NO CLOUDS BELOW 12,000 FEET WITH NO
SIGNIFICANT WEATHER AND/OR OBSTRUCTIONS TO VISIBILITY.

 * = STATION DOES NOT REPORT PRECIPITATION (E.G. RAIN, SNOW, ETC.)
        OR FOG.

NJZ015>026-231800-
SOUTHERN NEW JERSEY

CITY           SKY/WX    TMP DP  RH WIND       PRES   REMARKS
POMONA         CLOUDY    38  21  50 N6        30.10F WCI  33
WILDWOOD*      PTSUNNY   36  22  56 NW7       30.12F WCI  30
MILLVILLE      CLOUDY    38  22  52 NW9       30.11F WCI  31
WRIGHTSTOWN    SUNNY     38  21  50 NW8       30.07F WCI  32
MOUNT HOLLY    SUNNY     37  20  50 NW8       30.10F WCI  31
TRENTON        SUNNY     38  20  48 VRB7      30.09F WCI  33

$$
NJZ001>014-231800-
NORTHERN NEW JERSEY

CITY           SKY/WX    TMP DP  RH WIND       PRES   REMARKS
SUSSEX         SUNNY     39  20  46 N6        30.06F WCI  35
ANDOVER*         N/A     38  19  46 N8        30.06F WCI  32
MORRISTOWN     SUNNY     39  19  45 W8        30.07F WCI  34
NEWARK         MOSUNNY   42  19  39 N5        30.08F
TETERBORO      SUNNY     40  19  43 CALM      30.06F
CALDWELL       SUNNY     39  18  42 W7        30.07F WCI  34
SOMERVILLE     SUNNY     40  20  44 MISG      30.07F
ALLAIRE*       SUNNY     39  21  48 W8        30.09F WCI  33
TOMS RIVER*    MOSUNNY   38  21  50 W9        30.10F WCI  31

$$
PAZ043-044-047-054-055-060>062-066>071-231800-
EASTERN PENNSYLVANIA

CITY           SKY/WX    TMP DP  RH WIND       PRES   REMARKS
PHILADELPHIA   MOSUNNY   39  17  41 NW8       30.11F WCI  33
NORTH PHILA    SUNNY     41  20  43 NW7       30.12F
BLUE BELL*     SUNNY     36  21  55 NW5       30.12F WCI  32
DOYLESTOWN     SUNNY     38  20  48 VRB7      30.08F WCI  33
QUAKERTOWN*    SUNNY     36  18  48 N8        30.09F WCI  29
PERKASIE*      FAIR      37  18  44 NW9       30.09F WCI  31
POTTSTOWN      SUNNY     36  19  50 VRB6      30.11F WCI  31
LANCASTER      SUNNY     38  22  52 W8        30.11F WCI  32
COATESVILLE    SUNNY     37  21  52 NW9       30.10F WCI  31
READING        SUNNY     38  21  50 NW12      30.10F WCI  30
ALLENTOWN      SUNNY     38  20  48 NW12G18   30.09F WCI  30
MOUNT POCONO   SUNNY     30  18  60 NW10      30.00F WCI  21
HAZLETON       SUNNY     34  18  51 NW8       30.07F WCI  27
LEHIGHTON      FAIR      36  19  51 NW7       30.10F WCI  30
WILKES BARRE   SUNNY     34  19  54 VRB3      30.08F

$$
DEZALL-MDZ008-012-015-019-020-231800-
DELAWARE AND EASTERN MARYLAND

CITY           SKY/WX    TMP DP  RH WIND       PRES   REMARKS
WILMINGTON     SUNNY     42  21  43 N8        30.11F
DOVER          CLOUDY    39  28  63 NW9       30.11F WCI  33
GEORGETOWN     CLOUDY    39  20  46 N6        30.12F WCI  35
EASTON         MOSUNNY   41  23  48 N7        30.16F
ABERDEEN       SUNNY     42  22  45 N6        30.12F
PATUXENT       MOSUNNY   40  23  50 NW7       30.14F
OCEAN CITY     CLOUDY    40  23  50 NW7       30.12F
WALLOPS ISLAND PTSUNNY   40  25  55 CALM      30.14F
CAMBRIDGE      SUNNY     39  23  52 N8        30.13F WCI  34
SALISBURY      PTSUNNY   39  24  55 N7        30.12F WCI  34

$$
PAZ001-021-NYZ056-072-MDZ011-DCZ001-231800-
OTHER NEARBY LOCATIONS

CITY           SKY/WX    TMP DP  RH WIND       PRES   REMARKS
HARRISBURG     MOSUNNY   39  22  50 NW8       30.11F WCI  33
STATE COLLEGE  MOSUNNY   34  21  60 W7        30.08F WCI  28
WILLIAMSPORT   PTSUNNY   38  20  48 VRB5      30.11F WCI  34
BINGHAMTON     CLOUDY    30  18  60 CALM      30.03F
NEW YORK CITY  SUNNY     39  19  44 VRB6      30.09F WCI  35
BALTIMORE      MOSUNNY   43  24  47 NW9       30.11F
WASHINGTON DC  MOSUNNY   42  22  44 NW9       30.14F

$$




USA.gov is the U.S. government's official web portal to all federal, state and local government web resources and services.